DW6022 Weather Reports


time (UTC)temp
C
wind
direction
speed
KPH
gust
KPH
rain 1hr
cm
rain 24hr
cm
rain mn
cm
humidity
%
barometer
mb
20260507052702 12 243 3.2 8.0 0.00 22.61 0.08 74 1012.2
20260507052156 12 134 3.2 6.4 0.00 22.61 0.08 74 1012.3
20260507051653 12 138 3.2 6.4 0.00 22.61 0.08 73 1012.2
20260507051146 12 169 3.2 6.4 0.00 22.61 0.08 72 1012.1
20260507050700 12 173 3.2 9.7 0.00 22.61 0.08 70 1012.0
20260507050159 12 180 4.8 9.7 0.00 22.61 0.08 68 1011.9
20260507045654 12 325 4.8 22.5 0.00 23.19 0.08 68 1011.9
20260507045207 12 5 11.3 22.5 0.00 23.19 0.08 67 1011.8
20260507044704 12 360 8.0 22.5 0.00 23.19 0.08 66 1011.7
20260507044154 12 56 9.7 22.5 0.00 23.19 0.08 65 1011.6
20260507043711 12 22 16.1 22.5 0.00 23.19 0.08 65 1011.5
20260507043154 12 63 12.9 27.4 0.00 23.19 0.08 64 1011.4
20260507042710 12 11 14.5 27.4 0.00 23.19 0.08 64 1011.5
20260507042205 12 34 12.9 24.1 0.00 23.19 0.08 65 1011.4
20260507041702 12 55 16.1 24.1 0.00 23.19 0.08 66 1011.5
20260507041152 12 23 9.7 32.2 0.00 23.19 0.08 66 1011.4
20260507040649 12 54 12.9 24.1 0.00 23.19 0.08 65 1011.4
20260507040216 12 29 11.3 25.7 0.00 23.19 0.08 66 1011.4
20260507035702 12 71 14.5 25.7 0.00 23.19 0.08 66 1011.4
20260507035155 12 32 17.7 27.4 0.00 23.19 0.08 67 1011.5
20260507034653 12 64 14.5 24.1 0.00 23.19 0.08 69 1011.4
20260507034150 12 39 9.7 24.1 0.00 23.19 0.08 69 1011.6
20260507033649 11 322 11.3 24.1 0.00 23.19 0.08 71 1011.7
20260507033154 11 42 11.3 20.9 0.00 23.19 0.08 72 1011.8
20260507032707 11 47 11.3 19.3 0.00 23.19 0.08 72 1011.7
20260507032202 11 350 8.0 24.1 0.00 23.19 0.08 73 1011.7
20260507031700 11 319 14.5 24.1 0.00 23.19 0.08 74 1011.8
20260507031200 11 319 9.7 24.1 0.00 23.19 0.08 74 1011.8
20260507030657 11 25 11.3 29.0 0.00 23.19 0.08 75 1011.8
20260507030159 11 336 17.7 29.0 0.00 23.19 0.08 73 1011.8
20260507025658 11 13 9.7 27.4 0.00 23.19 0.08 74 1011.7
20260507025151 11 360 16.1 25.7 0.00 23.19 0.08 76 1011.8
20260507024707 11 17 11.3 24.1 0.00 23.19 0.08 76 1011.7
20260507024203 11 46 11.3 25.7 0.00 23.19 0.08 74 1011.7
20260507023650 12 329 14.5 24.1 0.00 23.19 0.08 71 1011.8
20260507023200 11 355 16.1 27.4 0.00 23.19 0.08 73 1011.7
20260507022715 11 71 11.3 27.4 0.00 23.19 0.08 76 1011.7
20260507022216 11 347 8.0 24.1 0.00 23.19 0.08 78 1011.7
20260507021649 10 350 8.0 25.7 0.00 23.19 0.08 80 1011.8
20260507021225 10 302 14.5 27.4 0.00 23.19 0.08 81 1011.9
20260507020646 10 326 17.7 33.8 0.10 23.19 0.08 82 1011.8
20260507020154 10 355 17.7 37.0 0.10 23.19 0.08 82 1012.0
20260507015653 11 355 14.5 35.4 0.10 23.39 0.08 80 1012.0
20260507015147 11 355 17.7 35.4 0.10 23.39 0.08 79 1011.9
20260507014702 11 5 19.3 29.0 0.10 23.39 0.08 77 1011.7
20260507014202 11 5 16.1 35.4 0.20 23.39 0.08 77 1011.4
20260507013654 11 5 22.5 35.4 0.20 23.39 0.08 77 1011.5
20260507013204 11 9 19.3 30.6 0.20 23.39 0.08 77 1011.4
20260507012703 11 18 16.1 35.4 0.20 23.39 0.08 77 1011.2
20260507012154 11 25 9.7 35.4 0.20 23.39 0.08 77 1011.0
20260507011652 11 25 12.9 25.7 0.30 23.39 0.08 76 1011.0
20260507010706 11 67 11.3 20.9 0.20 23.29 0.05 77 1011.0
20260507010203 11 39 12.9 20.9 0.20 23.29 0.05 77 1011.0
20260507005701 11 32 8.0 17.7 0.20 23.60 0.05 76 1011.0
20260507005159 11 9 9.7 27.4 0.20 23.60 0.05 76 1011.0
20260507004657 11 351 12.9 27.4 0.20 23.60 0.05 75 1011.2
20260507004156 11 355 16.1 40.2 0.10 23.50 0.03 77 1011.2
20260507003653 11 360 20.9 43.5 0.10 23.50 0.03 80 1011.3
20260507003159 10 13 25.7 43.5 0.10 23.50 0.03 81 1011.5
20260507002657 11 12 20.9 41.8 0.10 23.50 0.03 78 1011.5
20260507002202 11 355 14.5 29.0 0.10 23.50 0.03 74 1011.4
20260507001701 11 355 16.1 35.4 0.00 23.39 0.00 74 1011.4
20260507001156 12 334 20.9 35.4 0.00 23.39 0.00 72 1011.4
20260507000712 12 360 14.5 25.7 0.00 23.39 0.00 72 1011.3
20260507000157 11 360 11.3 27.4 0.00 23.39 0.00 73 1011.3
20260506235654 11 341 12.9 27.4 0.00 23.80 0.00 74 1011.4
20260506235213 11 327 16.1 30.6 0.00 23.80 0.00 77 1011.5
20260506234727 11 11 16.1 33.8 0.00 23.80 0.00 80 1011.6
20260506234156 10 331 17.7 33.8 0.00 23.80 0.00 81 1011.7
20260506233651 10 15 17.7 38.6 0.00 23.80 0.00 82 1011.6
20260506233204 11 18 24.1 46.7 0.00 23.80 0.00 81 1011.7
20260506232703 11 322 24.1 46.7 0.00 23.80 0.00 76 1011.4
20260506232223 12 15 17.7 29.0 0.00 23.80 0.00 73 1011.2
20260506231712 12 339 17.7 29.0 0.00 23.80 0.00 72 1011.1
20260506231215 12 355 17.7 29.0 0.00 23.80 0.00 72 1011.1
20260506230652 12 32 17.7 33.8 0.00 23.80 0.00 72 1011.1
20260506230157 11 344 22.5 33.8 0.00 23.80 0.00 75 1011.2
20260506225657 11 21 17.7 33.8 0.00 24.69 0.00 74 1011.2
20260506225153 11 9 16.1 35.4 0.00 24.69 0.00 74 1011.1
20260506224654 11 331 17.7 35.4 0.00 24.69 0.00 77 1011.0
20260506224213 11 12 17.7 35.4 0.00 24.69 0.00 77 1011.0
20260506223649 11 5 20.9 35.4 0.00 24.69 0.00 77 1011.1
20260506223154 11 5 20.9 30.6 0.00 24.69 0.00 76 1011.2
20260506222649 12 31 20.9 30.6 0.00 24.69 0.00 76 1011.1
20260506222153 12 333 19.3 30.6 0.00 24.69 0.00 77 1011.0
20260506221704 12 348 19.3 30.6 0.00 24.69 0.00 76 1011.0
20260506221207 12 9 20.9 38.6 0.00 24.69 0.00 77 1010.8
20260506220659 12 355 20.9 38.6 0.00 24.69 0.00 75 1010.9
20260506220219 12 355 20.9 32.2 0.00 24.69 0.00 73 1011.0
20260506215654 12 338 17.7 33.8 0.00 2.64 6.27 72 1010.9
20260506215229 12 10 17.7 33.8 0.10 2.64 6.27 73 1010.8
20260506214655 12 355 19.3 29.0 0.10 2.64 6.27 72 1010.8
20260506214201 12 350 11.3 17.7 0.10 2.64 6.27 75 1010.8
20260506213700 12 23 0.0 11.3 0.10 2.64 6.27 77 1010.7
20260506213149 12 81 3.2 16.1 0.10 2.64 6.27 75 1010.7
20260506212648 12 5 8.0 22.5 0.10 2.64 6.27 72 1010.7
20260506212207 12 46 8.0 35.4 0.10 2.64 6.27 73 1010.6
20260506211658 12 15 14.5 37.0 0.10 2.64 6.27 73 1010.6
20260506211201 12 15 22.5 32.2 0.10 2.64 6.27 73 1010.6
20260506210655 12 327 19.3 32.2 0.10 2.64 6.27 74 1010.6
20260506210201 12 333 14.5 40.2 0.10 2.64 6.27 75 1010.5
20260506205652 12 5 14.5 25.7 0.10 2.64 6.27 75 1010.6
20260506205205 12 5 16.1 25.7 0.10 2.62 6.25 76 1010.7
20260506204659 12 338 11.3 29.0 0.10 2.62 6.25 78 1010.6
20260506204201 12 5 14.5 29.0 0.10 2.62 6.25 77 1010.6
20260506203702 12 26 14.5 25.7 0.10 2.62 6.25 77 1010.6
20260506203156 12 351 19.3 27.4 0.20 2.62 6.25 76 1010.5
20260506202657 12 10 14.5 22.5 0.20 2.62 6.25 78 1010.4
20260506202155 11 5 12.9 19.3 0.30 2.62 6.25 80 1010.5
20260506201706 11 306 8.0 17.7 0.41 2.62 6.25 79 1010.5
20260506201204 12 20 11.3 22.5 0.41 2.62 6.25 78 1010.3
20260506200655 11 360 14.5 27.4 0.41 2.62 6.25 80 1010.4
20260506200219 11 41 14.5 29.0 0.51 2.62 6.25 80 1010.2
20260506195655 11 52 14.5 29.0 1.09 2.64 6.25 82 1010.0
20260506195150 11 28 16.1 32.2 0.99 2.62 6.22 82 1009.9
20260506194704 11 11 14.5 32.2 0.99 2.62 6.22 82 1009.8
20260506194150 11 43 17.7 40.2 0.99 2.62 6.22 82 1009.8
20260506193648 10 64 24.1 40.2 0.99 2.62 6.22 85 1010.3
20260506193153 10 84 19.3 35.4 0.89 2.62 6.20 86 1010.1
20260506192706 10 83 17.7 38.6 0.89 2.62 6.20 86 1010.5
20260506192203 10 74 9.7 25.7 0.79 2.62 6.17 84 1010.7
20260506191653 10 5 16.1 24.1 0.71 2.59 6.15 84 1010.6
20260506191207 11 355 8.0 14.5 0.71 2.59 6.15 86 1010.9
20260506190656 11 336 4.8 17.7 0.71 2.59 6.15 84 1011.0
20260506190204 12 311 9.7 22.5 0.51 2.59 6.10 80 1010.7
20260506185705 12 277 11.3 32.2 0.00 2.54 5.97 76 1010.7
20260506185204 12 338 17.7 33.8 0.00 2.54 5.97 73 1009.9
20260506184657 12 5 19.3 33.8 0.00 2.54 5.97 74 1009.1
20260506184218 12 342 19.3 35.4 0.00 2.54 5.97 74 1009.1
20260506183651 13 42 20.9 33.8 0.00 2.54 5.97 72 1008.9
20260506183159 13 19 14.5 33.8 0.00 2.54 5.97 70 1008.8
20260506182655 13 355 12.9 22.5 0.00 2.54 5.97 69 1008.6
20260506182214 13 62 9.7 30.6 0.00 2.54 5.97 69 1008.6
20260506181647 13 337 16.1 30.6 0.00 2.54 5.97 68 1008.5
20260506181152 13 9 16.1 33.8 0.00 2.54 5.97 69 1008.3
20260506180659 13 341 17.7 33.8 0.00 2.54 5.97 70 1008.3
20260506180205 13 9 19.3 37.0 0.00 2.54 5.97 71 1008.4
20260506175702 12 5 20.9 37.0 0.00 2.54 5.97 73 1008.3
20260506175203 13 5 16.1 27.4 0.00 2.54 5.97 72 1008.2
20260506174721 13 46 12.9 30.6 0.00 2.54 5.97 72 1008.3
20260506174155 13 16 17.7 32.2 0.00 2.54 5.97 71 1008.2
20260506173714 13 337 16.1 27.4 0.00 2.54 5.97 70 1008.2
20260506173159 13 29 9.7 25.7 0.00 2.54 5.97 70 1008.1
20260506172653 13 10 12.9 38.6 0.00 2.54 5.97 71 1008.1
20260506172151 13 5 20.9 38.6 0.00 2.54 5.97 70 1008.1
20260506171701 13 17 17.7 33.8 0.00 2.54 5.97 71 1008.1
20260506171158 12 355 19.3 33.8 0.00 2.54 5.97 73 1008.2
20260506170648 12 355 20.9 38.6 0.00 2.54 5.97 75 1008.0
20260506170157 12 336 22.5 40.2 0.00 2.54 5.97 78 1008.0
20260506165653 12 351 24.1 40.2 0.10 2.54 5.97 77 1008.0
20260506165227 12 5 25.7 41.8 0.10 2.54 5.97 79 1008.0
20260506164704 12 340 24.1 41.8 0.20 2.54 5.97 81 1007.8
20260506164203 12 22 29.0 41.8 0.30 2.54 5.97 83 1008.0
20260506163702 12 5 17.7 32.2 0.41 2.54 5.97 83 1007.8
20260506163158 12 329 19.3 35.4 0.61 2.54 5.97 82 1007.6
20260506162655 12 5 14.5 40.2 0.79 2.54 5.97 82 1007.5
20260506162157 11 27 25.7 43.5 1.19 2.54 5.97 84 1007.6
20260506161659 11 60 22.5 45.1 1.60 2.54 5.97 86 1007.4
20260506161224 11 59 27.4 45.1 2.31 2.54 5.97 88 1007.4
20260506160705 11 19 24.1 45.1 4.09 2.54 5.97 91 1007.8
20260506160225 11 64 27.4 45.1 7.70 2.54 5.97 92 1007.5
20260506155701 11 60 25.7 38.6 10.21 2.54 5.94 93 1007.7
20260506155152 10 49 20.9 38.6 11.81 2.54 5.94 93 1007.9
20260506154711 10 34 19.3 32.2 12.50 25.30 5.92 93 1007.8
20260506154150 10 30 16.1 32.2 12.80 25.20 5.89 93 1007.8
20260506153712 10 46 17.7 32.2 13.11 25.10 5.87 93 1008.0
20260506153220 10 360 11.3 33.8 13.49 24.89 5.82 93 1008.1
20260506152701 10 329 16.1 33.8 13.31 24.69 5.77 93 1008.1
20260506152157 10 360 19.3 32.2 12.90 24.31 5.66 93 1008.1
20260506151657 10 346 9.7 33.8 12.40 23.80 5.54 92 1008.4
20260506151201 9 338 14.5 33.8 11.71 23.09 5.36 91 1008.4
20260506150700 10 14 11.3 40.2 9.80 21.01 4.88 90 1008.6
20260506150204 11 300 20.9 45.1 6.81 17.81 4.01 87 1008.3
20260506145646 11 360 25.7 45.1 3.99 15.09 3.28 86 1007.5
20260506145157 12 348 27.4 45.1 2.59 13.69 2.92 83 1007.0
20260506144654 13 341 24.1 41.8 1.80 12.90 2.72 83 1007.1
20260506144146 13 30 14.5 30.6 1.50 12.60 2.64 85 1007.0
20260506143704 13 5 11.3 22.5 1.09 12.19 2.54 85 1007.1
20260506143204 13 76 9.7 22.5 0.51 11.61 2.39 85 1007.3
20260506142654 14 329 8.0 14.5 0.51 11.61 2.39 86 1007.1
20260506142155 14 350 11.3 17.7 0.51 11.61 2.39 86 1007.4
20260506141711 14 22 8.0 17.7 0.51 11.61 2.39 87 1007.3
20260506141146 14 101 4.8 14.5 0.51 11.61 2.39 86 1007.3
20260506140657 15 111 8.0 14.5 0.20 11.30 2.31 85 1007.6
20260506140155 15 121 3.2 12.9 0.10 11.20 2.29 86 1007.9
20260506135704 15 69 9.7 12.9 0.10 11.40 2.26 86 1007.7
20260506135152 15 94 8.0 17.7 0.10 11.40 2.26 86 1007.6
20260506134726 15 91 8.0 17.7 0.10 11.40 2.26 86 1007.8
20260506134146 15 115 8.0 16.1 0.10 11.40 2.26 87 1007.9
20260506133703 14 82 4.8 14.5 0.10 11.40 2.26 88 1008.3
20260506133218 14 113 9.7 16.1 0.10 11.40 2.26 88 1008.0
20260506132659 14 98 4.8 12.9 0.20 11.40 2.26 88 1008.0
20260506132203 14 114 8.0 20.9 0.30 11.40 2.26 89 1008.1
20260506131659 14 117 8.0 20.9 0.30 11.40 2.26 89 1008.1
20260506131214 14 123 9.7 17.7 0.30 11.40 2.26 89 1008.0
20260506130726 14 126 8.0 16.1 0.30 11.40 2.26 89 1008.1
20260506130206 14 123 6.4 20.9 0.30 11.40 2.26 89 1008.1
20260506125646 14 104 11.3 20.9 0.30 11.30 2.24 89 1008.2
20260506125156 14 125 9.7 19.3 1.19 11.30 2.24 89 1008.2
20260506124705 14 156 9.7 19.3 2.21 11.30 2.24 90 1008.2
20260506124225 14 103 8.0 20.9 2.59 11.30 2.24 90 1008.2
20260506123705 13 76 9.7 20.9 2.79 11.30 2.24 90 1008.3
20260506123147 13 74 12.9 27.4 2.90 11.30 2.24 90 1008.4
20260506122710 13 120 12.9 27.4 2.79 11.20 2.21 89 1008.4
20260506122146 13 74 12.9 22.5 2.69 11.10 2.18 89 1008.4
20260506121702 13 124 11.3 17.7 2.69 11.10 2.18 89 1008.5
20260506121200 13 146 4.8 16.1 2.69 11.10 2.18 89 1008.5
20260506120706 13 128 6.4 12.9 2.69 11.10 2.18 89 1008.5
20260506120214 13 234 8.0 12.9 2.69 11.10 2.18 87 1008.6
20260506115651 13 215 3.2 11.3 2.49 11.00 2.13 86 1008.3
20260506115147 14 136 4.8 11.3 1.60 10.11 1.91 84 1008.1
20260506114651 14 115 3.2 9.7 0.71 9.19 1.68 84 1008.1
20260506114220 15 212 3.2 9.7 0.30 8.79 1.57 83 1008.3
20260506113651 15 102 3.2 11.3 0.10 8.61 1.52 81 1008.2
20260506113149 15 103 6.4 12.9 0.00 8.51 1.50 79 1008.1
20260506112703 15 96 6.4 14.5 0.00 8.51 1.50 79 1008.1
20260506112201 15 120 8.0 14.5 0.00 8.51 1.50 80 1008.0
20260506111659 15 117 9.7 19.3 0.00 8.51 1.50 79 1008.2
20260506111155 15 78 12.9 22.5 0.00 8.51 1.50 78 1008.2
20260506110715 16 136 11.3 22.5 0.00 8.51 1.50 78 1008.4
20260506110200 16 104 9.7 17.7 0.00 8.51 1.50 81 1008.4
20260506105651 16 214 11.3 19.3 0.00 8.51 1.50 81 1008.5
20260506105153 15 119 11.3 16.1 0.00 8.51 1.50 82 1008.5
20260506104708 15 182 8.0 16.1 0.00 8.51 1.50 86 1008.7
20260506104151 14 105 9.7 17.7 0.00 8.51 1.50 85 1008.7
20260506103707 14 99 9.7 17.7 0.00 8.51 1.50 85 1008.8
20260506103148 14 113 8.0 16.1 0.00 8.51 1.50 85 1008.7
20260506102703 14 148 11.3 16.1 0.10 8.51 1.50 86 1008.7
20260506102159 14 101 8.0 16.1 0.20 8.51 1.50 89 1008.7
20260506101648 13 76 11.3 14.5 0.61 8.51 1.50 90 1008.7
20260506101147 13 90 8.0 14.5 0.79 8.51 1.50 92 1008.8
20260506100701 12 101 9.7 14.5 0.99 8.51 1.50 92 1008.8
20260506100148 12 115 4.8 8.0 1.19 8.51 1.50 92 1008.8
20260506095700 12 29 4.8 6.4 1.40 8.51 1.50 92 1008.8
20260506095158 12 175 0.0 6.4 1.80 8.51 1.50 92 1008.9
20260506094653 12 176 3.2 6.4 2.11 8.51 1.50 92 1009.0
20260506094156 12 136 0.0 0.0 2.39 8.51 1.50 92 1008.9
20260506093651 12 136 0.0 16.1 2.49 8.51 1.50 92 1008.9
20260506093150 12 136 1.6 17.7 2.49 8.51 1.50 92 1008.9
20260506092702 12 350 11.3 16.1 2.39 8.41 1.47 92 1008.9
20260506092155 12 315 8.0 11.3 2.21 8.20 1.42 92 1008.9
20260506091654 12 325 6.4 11.3 1.91 7.90 1.35 91 1008.7
20260506091154 12 299 3.2 17.7 1.60 7.59 1.27 91 1008.8
20260506090650 12 328 3.2 22.5 1.40 7.39 1.22 91 1008.9
20260506090224 12 293 4.8 22.5 1.19 7.19 1.19 90 1008.9
20260506085723 12 282 4.8 11.3 0.99 7.90 1.12 90 1008.8
20260506085158 12 261 6.4 9.7 0.79 7.59 1.04 90 1008.8
20260506084648 12 102 0.0 8.0 0.51 7.29 0.97 90 1008.6
20260506084210 12 102 1.6 8.0 0.20 7.01 0.89 89 1008.3
20260506083705 12 103 1.6 4.8 0.10 6.91 0.86 89 1008.2
20260506083148 12 103 1.6 9.7 0.10 6.91 0.86 89 1008.1
20260506082709 12 103 3.2 9.7 0.20 6.91 0.86 89 1008.1
20260506082205 12 111 4.8 8.0 0.20 6.91 0.86 90 1008.2
20260506081649 12 109 4.8 8.0 0.30 6.91 0.86 90 1008.3
20260506081150 12 66 3.2 11.3 0.41 6.91 0.86 91 1008.2
20260506080659 12 86 6.4 11.3 0.51 6.91 0.86 91 1008.4
20260506080205 12 82 4.8 11.3 0.61 6.91 0.86 91 1008.4
20260506073219 12 64 3.2 11.3 0.51 8.71 0.84 91 1008.6
20260506072659 12 59 4.8 11.3 0.41 8.61 0.81 91 1008.6
20260506072212 12 40 4.8 11.3 0.30 8.51 0.79 91 1008.7
20260506071646 12 84 4.8 11.3 0.30 8.51 0.79 91 1008.7
20260506071205 12 88 8.0 12.9 0.20 8.41 0.76 91 1008.7
20260506070659 12 69 4.8 12.9 0.10 8.31 0.74 92 1008.9
20260506070200 12 89 4.8 9.7 0.00 8.20 0.71 92 1008.8
20260506062205 12 78 0.0 0.0 0.30 8.41 0.71 93 1008.7
20260506061657 12 78 0.0 0.0 0.41 8.41 0.71 93 1008.7
20260506061153 12 78 0.0 0.0 0.41 8.41 0.71 93 1008.7
20260506060648 12 79 0.0 9.7 0.41 8.41 0.71 93 1008.9
20260506060152 12 71 0.0 9.7 0.41 8.41 0.71 93 1008.9